This demonstration page uses our WeatherBlox Daily Observations layout. Learn more.

Left ArrowRight Arrow

38.88101, -77.10428

Hourly Observations for October 27, 2022

Temp ( °F °C ) Dew Point ( °F °C ) Humidity (%) Winds ( mph kmh ) Pressure ( in mb ) Visibility ( mi km ) Precip ( " mm )
12:52 am 00:52 Mostly Clear 59 15 46 7.8 62 62 WNW 8 13 29.96 1014 10 16 0.00 0.00
1:52 am 01:52 Clear 57 13.9 46 7.8 67 67 NNW 6 9 29.98 1015 10 16 0.00 0.00
2:52 am 02:52 Partly Cloudy 56 13.3 46 7.8 69 69 NW 3 6 30.00 1016 10 16 0.00 0.00
3:52 am 03:52 Mostly Clear 54 12.2 45 7.2 71 71 NNW 6 9 30.01 1016 10 16 0.00 0.00
4:52 am 04:52 Mostly Clear 56 13.3 44 6.7 64 64 NNW 13 20 30.04 1017 10 16 0.00 0.00
5:52 am 05:52 Clear 55 12.8 44 6.7 66 66 NNW 10 17 30.06 1018 10 16 0.00 0.00
6:52 am 06:52 Mostly Clear 55 12.8 44 6.7 66 66 NW 12 19 30.09 1019 10 16 0.00 0.00
7:52 am 07:52 Mostly Sunny 54 12.2 44 6.7 69 69 NNW 13 20 30.12 1020 10 16 0.00 0.00
8:52 am 08:52 Mostly Sunny 57 13.9 43 6.1 59 59 N 14 22 30.16 1021 10 16 0.00 0.00
9:52 am 09:52 Partly Cloudy 59 15 43 6.1 55 55 NNW 18 30 30.18 1022 10 16 0.00 0.00
10:52 am 10:52 Partly Cloudy 60 15.6 42 5.6 51 51 N 18 30 30.20 1023 10 16 0.00 0.00
11:52 am 11:52 Mostly Sunny 62 16.7 43 6.1 50 50 NNW 16 26 30.21 1023 10 16 0.00 0.00
12:52 pm 12:52 Mostly Sunny 64 17.8 43 6.1 46 46 N 16 26 30.20 1023 10 16 0.00 0.00
1:52 pm 13:52 Mostly Sunny 65 18.3 42 5.6 43 43 NNW 13 20 30.19 1022 10 16 0.00 0.00
2:52 pm 14:52 Mostly Sunny 66 18.9 41 5 40 40 NW 13 20 30.19 1022 10 16 0.00 0.00
3:52 pm 15:52 Mostly Sunny 67 19.4 41 5 39 39 NNE 7 11 30.19 1022 10 16 0.00 0.00
4:52 pm 16:52 Mostly Sunny 65 18.3 39 3.9 38 38 NNE 15 24 30.21 1023 10 16 0.00 0.00
5:52 pm 17:52 Mostly Sunny 62 16.7 38 3.3 41 41 N 13 20 30.24 1024 10 16 0.00 0.00
6:52 pm 18:52 Clear 59 15 38 3.3 45 45 N 10 17 30.26 1025 10 16 0.00 0.00
7:52 pm 19:52 Clear 58 14.4 37 2.8 46 46 N 12 19 30.29 1026 10 16 0.00 0.00
8:52 pm 20:52 Clear 57 13.9 37 2.8 47 47 N 13 20 30.30 1026 10 16 0.00 0.00
9:52 pm 21:52 Clear 54 12.2 37 2.8 53 53 N 10 17 30.32 1027 10 16 0.00 0.00
10:52 pm 22:52 Mostly Clear 55 12.8 36 2.2 48 48 N 13 20 30.35 1028 10 16 0.00 0.00
11:52 pm 23:52 Mostly Clear 53 11.7 36 2.2 52 52 NNE 13 20 30.36 1028 10 16 0.00 0.00

Powered by AerisWeather